| time (UTC) | temp C | wind direction | speed KPH | gust KPH | rain 1hr cm | rain 24hr cm | rain mn cm | humidity % | barometer mb |
| 20260906163848 | 21 | 110 | 12.9 | 20.9 | 0.00 | 0.00 | 0.00 | 1020.3 | |
| 20260906163208 | 21 | 100 | 12.9 | 22.5 | 0.00 | 0.00 | 0.00 | 1020.4 | |
| 20260906162528 | 21 | 91 | 14.5 | 22.5 | 0.00 | 0.00 | 0.00 | 1020.3 | |
| 20260906161848 | 21 | 89 | 14.5 | 25.7 | 0.00 | 0.00 | 0.00 | 1020.3 | |
| 20260906161208 | 21 | 84 | 11.3 | 19.3 | 0.00 | 0.00 | 0.00 | 1020.3 | |
| 20260906160528 | 21 | 102 | 11.3 | 22.5 | 0.00 | 0.00 | 0.00 | 1020.5 | |
| 20260906155848 | 21 | 84 | 11.3 | 20.9 | 0.00 | 0.00 | 0.00 | 1020.5 | |
| 20260906155208 | 21 | 90 | 14.5 | 22.5 | 0.00 | 0.00 | 0.00 | 1020.3 | |
| 20260906154528 | 21 | 85 | 12.9 | 22.5 | 0.00 | 0.00 | 0.00 | 1020.4 | |
| 20260906153848 | 21 | 72 | 11.3 | 22.5 | 0.00 | 0.00 | 0.00 | 1020.5 | |
| 20260906153422 | 21 | 92 | 11.3 | 22.5 | 0.00 | 0.00 | 0.00 | 1020.5 | |
| 20260906152528 | 21 | 90 | 11.3 | 20.9 | 0.00 | 0.00 | 0.00 | 1020.5 | |
| 20260906152058 | 22 | 96 | 8.0 | 20.9 | 0.00 | 0.00 | 0.00 | 1020.6 | |
| 20260906151208 | 21 | 92 | 11.3 | 20.9 | 0.00 | 0.00 | 0.00 | 1020.1 | |
| 20260906150528 | 22 | 117 | 9.7 | 20.9 | 0.00 | 0.00 | 0.00 | 1020.3 | |
| 20260906145848 | 22 | 118 | 8.0 | 17.7 | 0.00 | 0.00 | 0.00 | 1020.3 | |
| 20260906145208 | 22 | 115 | 9.7 | 16.1 | 0.00 | 0.00 | 0.00 | 1020.3 | |
| 20260906144528 | 22 | 95 | 9.7 | 17.7 | 0.00 | 0.00 | 0.00 | 1020.3 | |
| 20260906143848 | 22 | 87 | 8.0 | 19.3 | 0.00 | 0.00 | 0.00 | 1020.3 | |
| 20260906143208 | 22 | 84 | 9.7 | 19.3 | 0.00 | 0.00 | 0.00 | 1020.2 | |
| 20260906142528 | 22 | 90 | 9.7 | 16.1 | 0.00 | 0.00 | 0.00 | 1020.3 | |
| 20260906142059 | 21 | 81 | 9.7 | 14.5 | 0.00 | 0.00 | 0.00 | 1020.3 | |
| 20260906141208 | 21 | 109 | 11.3 | 19.3 | 0.00 | 0.00 | 0.00 | 1020.1 | |
| 20260906140529 | 21 | 97 | 9.7 | 16.1 | 0.00 | 0.00 | 0.00 | 1020.1 | |
| 20260906135848 | 21 | 114 | 11.3 | 16.1 | 0.00 | 0.00 | 0.00 | 1019.9 | |
| 20260906135208 | 21 | 99 | 9.7 | 16.1 | 0.00 | 0.00 | 0.00 | 1020.0 | |
| 20260906134528 | 21 | 119 | 9.7 | 14.5 | 0.00 | 0.00 | 0.00 | 1020.0 | |
| 20260906133848 | 21 | 117 | 9.7 | 14.5 | 0.00 | 0.00 | 0.00 | 1020.0 | |
| 20260906133208 | 21 | 98 | 6.4 | 12.9 | 0.00 | 0.00 | 0.00 | 1019.9 | |
| 20260906132528 | 21 | 104 | 9.7 | 12.9 | 0.00 | 0.00 | 0.00 | 1019.9 | |
| 20260906131848 | 21 | 111 | 6.4 | 11.3 | 0.00 | 0.00 | 0.00 | 1020.1 | |
| 20260906131208 | 21 | 117 | 8.0 | 12.9 | 0.00 | 0.00 | 0.00 | 1019.9 | |
| 20260906130741 | 21 | 97 | 8.0 | 12.9 | 0.00 | 0.00 | 0.00 | 1019.9 | |
| 20260906125848 | 21 | 97 | 8.0 | 12.9 | 0.00 | 0.00 | 0.00 | 1019.8 | |
| 20260906125208 | 21 | 117 | 4.8 | 9.7 | 0.00 | 0.00 | 0.00 | 1019.8 | |
| 20260906124528 | 21 | 119 | 6.4 | 11.3 | 0.00 | 0.00 | 0.00 | 1019.6 | |
| 20260906123848 | 21 | 122 | 8.0 | 12.9 | 0.00 | 0.00 | 0.00 | 1019.5 | |
| 20260906123208 | 21 | 120 | 8.0 | 12.9 | 0.00 | 0.00 | 0.00 | 1019.5 | |
| 20260906122528 | 20 | 112 | 8.0 | 14.5 | 0.00 | 0.00 | 0.00 | 1019.4 | |
| 20260906121848 | 20 | 116 | 9.7 | 14.5 | 0.00 | 0.00 | 0.00 | 1019.3 | |
| 20260906121421 | 20 | 112 | 8.0 | 11.3 | 0.00 | 0.00 | 0.00 | 1019.3 | |
| 20260906120528 | 20 | 130 | 8.0 | 11.3 | 0.00 | 0.00 | 0.00 | 1019.3 | |
| 20260906115848 | 20 | 130 | 6.4 | 11.3 | 0.00 | 0.00 | 0.00 | 1019.0 | |
| 20260906115208 | 20 | 121 | 8.0 | 11.3 | 0.00 | 0.00 | 0.00 | 1018.9 | |
| 20260906114528 | 20 | 129 | 6.4 | 11.3 | 0.00 | 0.00 | 0.00 | 1018.8 | |
| 20260906113848 | 20 | 119 | 6.4 | 11.3 | 0.00 | 0.00 | 0.00 | 1018.8 | |
| 20260906113208 | 20 | 124 | 8.0 | 12.9 | 0.00 | 0.00 | 0.00 | 1018.6 | |
| 20260906112528 | 20 | 127 | 8.0 | 11.3 | 0.00 | 0.00 | 0.00 | 1018.6 | |
| 20260906111848 | 20 | 125 | 6.4 | 11.3 | 0.00 | 0.00 | 0.00 | 1018.5 | |
| 20260906111208 | 20 | 126 | 8.0 | 11.3 | 0.00 | 0.00 | 0.00 | 1018.5 | |
| 20260906110528 | 20 | 123 | 8.0 | 11.3 | 0.00 | 0.00 | 0.00 | 1018.4 | |
| 20260906105848 | 20 | 122 | 8.0 | 11.3 | 0.00 | 0.00 | 0.00 | 1018.4 | |
| 20260906105208 | 20 | 139 | 6.4 | 11.3 | 0.00 | 0.00 | 0.00 | 1018.4 | |
| 20260906104528 | 20 | 140 | 8.0 | 11.3 | 0.00 | 0.00 | 0.00 | 1018.3 | |
| 20260906103848 | 20 | 141 | 6.4 | 11.3 | 0.00 | 0.00 | 0.00 | 1018.3 | |
| 20260906103420 | 20 | 133 | 8.0 | 11.3 | 0.00 | 0.00 | 0.00 | 1018.2 | |
| 20260906102528 | 20 | 138 | 6.4 | 11.3 | 0.00 | 0.00 | 0.00 | 1018.2 | |
| 20260906102102 | 20 | 132 | 6.4 | 11.3 | 0.00 | 0.00 | 0.00 | 1018.3 | |
| 20260906101208 | 20 | 135 | 6.4 | 12.9 | 0.00 | 0.00 | 0.00 | 1018.3 | |
| 20260906100528 | 20 | 133 | 8.0 | 12.9 | 0.00 | 0.00 | 0.00 | 1018.3 | |
| 20260906095848 | 20 | 122 | 9.7 | 12.9 | 0.00 | 0.00 | 0.00 | 1018.2 | |
| 20260906095208 | 19 | 134 | 6.4 | 9.7 | 0.00 | 0.00 | 0.00 | 1018.3 | |
| 20260906094528 | 19 | 143 | 4.8 | 11.3 | 0.00 | 0.00 | 0.00 | 1018.2 | |
| 20260906093848 | 19 | 127 | 6.4 | 9.7 | 0.00 | 0.00 | 0.00 | 1018.2 | |
| 20260906093208 | 18 | 108 | 4.8 | 9.7 | 0.00 | 0.00 | 0.00 | 1018.1 | |
| 20260906092528 | 18 | 106 | 4.8 | 9.7 | 0.00 | 0.00 | 0.00 | 1018.1 | |
| 20260906091848 | 18 | 102 | 3.2 | 4.8 | 0.00 | 0.00 | 0.00 | 1017.9 | |
| 20260906091418 | 18 | 57 | 1.6 | 6.4 | 0.00 | 0.00 | 0.00 | 1017.9 | |
| 20260906090739 | 18 | 79 | 3.2 | 6.4 | 0.00 | 0.00 | 0.00 | 1017.9 | |
| 20260906085848 | 18 | 92 | 1.6 | 3.2 | 0.00 | 0.00 | 0.00 | 1017.7 | |
| 20260906085208 | 17 | 65 | 1.6 | 3.2 | 0.00 | 0.00 | 0.00 | 1017.7 | |
| 20260906084528 | 17 | 243 | 1.6 | 4.8 | 0.00 | 0.00 | 0.00 | 1017.9 | |
| 20260906083848 | 18 | 355 | 1.6 | 8.0 | 0.00 | 0.00 | 0.00 | 1017.8 | |
| 20260906083208 | 18 | 340 | 3.2 | 8.0 | 0.00 | 0.00 | 0.00 | 1017.9 | |
| 20260906082528 | 18 | 314 | 4.8 | 8.0 | 0.00 | 0.00 | 0.00 | 1017.9 | |
| 20260906081848 | 18 | 321 | 4.8 | 8.0 | 0.00 | 0.00 | 0.00 | 1017.8 | |
| 20260906081208 | 18 | 80 | 1.6 | 8.0 | 0.00 | 0.00 | 0.00 | 1017.8 | |
| 20260906080528 | 18 | 1 | 3.2 | 9.7 | 0.00 | 0.00 | 0.00 | 1017.7 | |
| 20260906075848 | 18 | 336 | 6.4 | 11.3 | 0.00 | 0.00 | 0.00 | 1017.7 | |
| 20260906075208 | 17 | 333 | 8.0 | 11.3 | 0.00 | 0.00 | 0.00 | 1017.6 | |
| 20260906074528 | 18 | 333 | 8.0 | 11.3 | 0.00 | 0.00 | 0.00 | 1017.5 | |
| 20260906073848 | 18 | 340 | 8.0 | 9.7 | 0.00 | 0.00 | 0.00 | 1017.4 | |
| 20260906073208 | 18 | 341 | 6.4 | 9.7 | 0.00 | 0.00 | 0.00 | 1017.4 | |
| 20260906072528 | 18 | 335 | 6.4 | 9.7 | 0.00 | 0.00 | 0.00 | 1017.3 | |
| 20260906071848 | 18 | 343 | 6.4 | 9.7 | 0.00 | 0.00 | 0.00 | 1017.1 | |
| 20260906071208 | 19 | 347 | 6.4 | 9.7 | 0.00 | 0.00 | 0.00 | 1017.2 | |
| 20260906070528 | 19 | 357 | 4.8 | 11.3 | 0.00 | 0.00 | 0.00 | 1017.2 | |
| 20260906070101 | 19 | 12 | 4.8 | 11.3 | 0.00 | 0.00 | 0.00 | 1017.2 | |
| 20260906065421 | 18 | 17 | 6.4 | 14.5 | 0.00 | 0.00 | 0.00 | 1017.2 | |
| 20260906064528 | 18 | 22 | 8.0 | 14.5 | 0.00 | 0.00 | 0.00 | 1017.2 | |
| 20260906064057 | 19 | 9 | 8.0 | 12.9 | 0.00 | 0.00 | 0.00 | 1017.2 | |
| 20260906063208 | 19 | 3 | 6.4 | 12.9 | 0.00 | 0.00 | 0.00 | 1017.2 | |
| 20260906062528 | 18 | 14 | 8.0 | 12.9 | 0.00 | 0.00 | 0.00 | 1017.2 | |
| 20260906061848 | 18 | 15 | 8.0 | 16.1 | 0.00 | 0.00 | 0.00 | 1017.2 | |
| 20260906061208 | 18 | 14 | 8.0 | 16.1 | 0.00 | 0.00 | 0.00 | 1017.2 | |
| 20260906060528 | 18 | 10 | 9.7 | 16.1 | 0.00 | 0.00 | 0.00 | 1017.2 | |
| 20260906055848 | 18 | 11 | 8.0 | 14.5 | 0.00 | 0.00 | 0.00 | 1017.1 | |
| 20260906055208 | 18 | 18 | 8.0 | 14.5 | 0.00 | 0.00 | 0.00 | 1017.0 | |
| 20260906054528 | 18 | 14 | 6.4 | 14.5 | 0.00 | 0.00 | 0.00 | 1017.0 | |
| 20260906053848 | 18 | 18 | 8.0 | 14.5 | 0.00 | 0.00 | 0.00 | 1017.0 | |
| 20260906053419 | 18 | 16 | 8.0 | 12.9 | 0.00 | 0.00 | 0.00 | 1016.9 | |
| 20260906052739 | 18 | 10 | 8.0 | 12.9 | 0.00 | 0.00 | 0.00 | 1016.9 | |
| 20260906051848 | 19 | 1 | 6.4 | 12.9 | 0.00 | 0.00 | 0.00 | 1016.9 | |
| 20260906051421 | 19 | 5 | 6.4 | 11.3 | 0.00 | 0.00 | 0.00 | 1016.9 | |
| 20260906050528 | 19 | 359 | 6.4 | 12.9 | 0.00 | 0.00 | 0.00 | 1017.0 | |
| 20260906045208 | 18 | 359 | 6.4 | 11.3 | 0.00 | 0.00 | 0.00 | 1017.0 | |
| 20260906044738 | 19 | 354 | 6.4 | 12.9 | 0.00 | 0.00 | 0.00 | 1017.1 | |
| 20260906043848 | 19 | 355 | 6.4 | 12.9 | 0.00 | 0.00 | 0.00 | 1017.0 | |
| 20260906043208 | 19 | 358 | 6.4 | 14.5 | 0.00 | 0.00 | 0.00 | 1017.0 | |
| 20260906042528 | 19 | 2 | 8.0 | 12.9 | 0.00 | 0.00 | 0.00 | 1017.0 | |
| 20260906041848 | 18 | 3 | 6.4 | 12.9 | 0.00 | 0.00 | 0.00 | 1016.9 | |
| 20260906041208 | 19 | 351 | 6.4 | 11.3 | 0.00 | 0.00 | 0.00 | 1016.9 | |
| 20260906040742 | 19 | 359 | 6.4 | 14.5 | 0.00 | 0.00 | 0.00 | 1016.7 | |
| 20260906035848 | 19 | 353 | 6.4 | 14.5 | 0.00 | 0.00 | 0.00 | 1016.7 | |
| 20260906035208 | 19 | 355 | 8.0 | 14.5 | 0.00 | 0.00 | 0.00 | 1016.8 | |
| 20260906034528 | 19 | 359 | 6.4 | 12.9 | 0.00 | 0.00 | 0.00 | 1016.8 | |
| 20260906034100 | 20 | 357 | 8.0 | 12.9 | 0.00 | 0.00 | 0.00 | 1016.8 | |
| 20260906033420 | 20 | 355 | 8.0 | 14.5 | 0.00 | 0.00 | 0.00 | 1016.8 | |
| 20260906032528 | 20 | 1 | 6.4 | 16.1 | 0.00 | 0.00 | 0.00 | 1016.8 | |
| 20260906031848 | 20 | 4 | 6.4 | 16.1 | 0.00 | 0.00 | 0.00 | 1016.7 | |
| 20260906031208 | 19 | 15 | 6.4 | 14.5 | 0.00 | 0.00 | 0.00 | 1016.7 | |
| 20260906030528 | 20 | 6 | 8.0 | 17.7 | 0.00 | 0.00 | 0.00 | 1016.8 | |
| 20260906025848 | 20 | 358 | 8.0 | 17.7 | 0.00 | 0.00 | 0.00 | 1016.8 | |
| 20260906025208 | 20 | 7 | 8.0 | 16.1 | 0.00 | 0.00 | 0.00 | 1016.7 | |
| 20260906024528 | 20 | 359 | 6.4 | 16.1 | 0.00 | 0.00 | 0.00 | 1016.8 | |
| 20260906023848 | 20 | 1 | 8.0 | 14.5 | 0.00 | 0.00 | 0.00 | 1016.8 | |
| 20260906023208 | 20 | 7 | 8.0 | 14.5 | 0.00 | 0.00 | 0.00 | 1016.8 | |
| 20260906022528 | 20 | 2 | 8.0 | 12.9 | 0.00 | 0.00 | 0.00 | 1016.8 | |
| 20260906021848 | 20 | 8 | 6.4 | 11.3 | 0.00 | 0.00 | 0.00 | 1016.7 | |
| 20260906021417 | 20 | 358 | 8.0 | 14.5 | 0.00 | 0.00 | 0.00 | 1016.8 | |
| 20260906020738 | 20 | 356 | 9.7 | 14.5 | 0.00 | 0.00 | 0.00 | 1016.8 | |
| 20260906015848 | 20 | 355 | 8.0 | 14.5 | 0.00 | 0.00 | 0.00 | 1016.9 | |
| 20260906015208 | 20 | 356 | 8.0 | 14.5 | 0.00 | 0.00 | 0.00 | 1016.8 | |
| 20260906014528 | 20 | 352 | 9.7 | 14.5 | 0.00 | 0.00 | 0.00 | 1016.7 | |
| 20260906011208 | 20 | 13 | 9.7 | 16.1 | 0.00 | 0.00 | 0.00 | 1016.5 | |
| 20260906010528 | 20 | 12 | 9.7 | 19.3 | 0.00 | 0.00 | 0.00 | 1016.4 | |
| 20260906005848 | 20 | 15 | 11.3 | 20.9 | 0.00 | 0.00 | 0.00 | 1016.4 | |
| 20260906005420 | 20 | 14 | 11.3 | 20.9 | 0.00 | 0.00 | 0.00 | 1016.3 | |
| 20260906004528 | 20 | 19 | 12.9 | 24.1 | 0.00 | 0.00 | 0.00 | 1016.4 | |
| 20260906003848 | 20 | 24 | 14.5 | 24.1 | 0.00 | 0.00 | 0.00 | 1016.3 | |
| 20260906003422 | 20 | 26 | 14.5 | 24.1 | 0.00 | 0.00 | 0.00 | 1016.3 | |
| 20260906002528 | 20 | 22 | 12.9 | 22.5 | 0.00 | 0.00 | 0.00 | 1016.3 | |
| 20260906001848 | 20 | 22 | 12.9 | 22.5 | 0.00 | 0.00 | 0.00 | 1016.3 | |
| 20260906001208 | 20 | 22 | 11.3 | 24.1 | 0.00 | 0.00 | 0.00 | 1016.3 | |
| 20260906000528 | 20 | 19 | 9.7 | 24.1 | 0.00 | 0.00 | 0.00 | 1016.3 | |
| 20260905235848 | 20 | 21 | 12.9 | 25.7 | 0.00 | 0.00 | 0.00 | 1016.2 | |
| 20260905235208 | 20 | 14 | 14.5 | 25.7 | 0.00 | 0.00 | 0.00 | 1016.4 | |
| 20260905234528 | 20 | 21 | 16.1 | 24.1 | 0.00 | 0.00 | 0.00 | 1016.5 | |
| 20260905234102 | 20 | 19 | 11.3 | 24.1 | 0.00 | 0.00 | 0.00 | 1016.4 | |
| 20260905233208 | 20 | 19 | 16.1 | 24.1 | 0.00 | 0.00 | 0.00 | 1016.4 | |
| 20260905232528 | 21 | 22 | 12.9 | 24.1 | 0.00 | 0.00 | 0.00 | 1016.3 | |
| 20260905231848 | 21 | 21 | 16.1 | 22.5 | 0.00 | 0.00 | 0.00 | 1016.4 | |
| 20260905231208 | 21 | 26 | 11.3 | 20.9 | 0.00 | 0.00 | 0.00 | 1016.4 | |
| 20260905230741 | 21 | 24 | 12.9 | 25.7 | 0.00 | 0.00 | 0.00 | 1016.4 | |
| 20260905225848 | 21 | 18 | 14.5 | 19.3 | 0.00 | 0.00 | 0.00 | 1016.3 | |
| 20260905225208 | 21 | 19 | 8.0 | 20.9 | 0.00 | 0.00 | 0.00 | 1016.4 | |
| 20260905224737 | 21 | 23 | 14.5 | 25.7 | 0.00 | 0.00 | 0.00 | 1016.3 | |
| 20260905223848 | 21 | 21 | 14.5 | 29.0 | 0.00 | 0.00 | 0.00 | 1016.2 | |
| 20260905223208 | 21 | 20 | 14.5 | 29.0 | 0.00 | 0.00 | 0.00 | 1016.3 | |
| 20260905222739 | 21 | 21 | 12.9 | 22.5 | 0.00 | 0.00 | 0.00 | 1016.3 | |
| 20260905221848 | 20 | 20 | 14.5 | 22.5 | 0.00 | 0.00 | 0.00 | 1016.1 | |
| 20260905221208 | 21 | 26 | 12.9 | 22.5 | 0.00 | 0.00 | 0.00 | 1016.2 | |
| 20260905220528 | 21 | 23 | 12.9 | 24.1 | 0.00 | 0.00 | 0.00 | 1016.2 | |
| 20260905215848 | 21 | 21 | 9.7 | 24.1 | 0.00 | 0.00 | 0.00 | 1016.2 | |
| 20260905215417 | 21 | 21 | 12.9 | 22.5 | 0.00 | 0.00 | 0.00 | 1016.3 | |
| 20260905214528 | 21 | 22 | 12.9 | 22.5 | 0.00 | 0.00 | 0.00 | 1016.4 | |
| 20260905213848 | 21 | 18 | 14.5 | 20.9 | 0.00 | 0.00 | 0.00 | 1016.4 | |
| 20260905213208 | 21 | 16 | 12.9 | 20.9 | 0.00 | 0.00 | 0.00 | 1016.3 | |
| 20260905212740 | 21 | 16 | 8.0 | 20.9 | 0.00 | 0.00 | 0.00 | 1016.4 | |
| 20260905211848 | 21 | 12 | 11.3 | 24.1 | 0.00 | 0.00 | 0.00 | 1016.2 | |
| 20260905211208 | 21 | 21 | 14.5 | 24.1 | 0.00 | 0.00 | 0.00 | 1016.3 | |
| 20260905210528 | 21 | 16 | 14.5 | 20.9 | 0.00 | 0.00 | 0.00 | 1016.2 | |
| 20260905205848 | 21 | 12 | 12.9 | 24.1 | 0.00 | 0.00 | 0.00 | 1016.2 | |
| 20260905205208 | 21 | 6 | 12.9 | 24.1 | 0.00 | 0.00 | 0.00 | 1016.3 | |
| 20260905204528 | 20 | 16 | 14.5 | 25.7 | 0.00 | 0.00 | 0.00 | 1016.3 | |
| 20260905203848 | 21 | 18 | 14.5 | 25.7 | 0.00 | 0.00 | 0.00 | 1016.2 | |
| 20260905203208 | 21 | 20 | 12.9 | 25.7 | 0.00 | 0.00 | 0.00 | 1016.3 | |
| 20260905202528 | 21 | 22 | 14.5 | 24.1 | 0.00 | 0.00 | 0.00 | 1016.2 | |
| 20260905201848 | 20 | 27 | 16.1 | 24.1 | 0.00 | 0.00 | 0.00 | 1016.2 | |
| 20260905201207 | 20 | 19 | 12.9 | 20.9 | 0.00 | 0.00 | 0.00 | 1016.2 | |
| 20260905200527 | 20 | 23 | 14.5 | 20.9 | 0.00 | 0.00 | 0.00 | 1016.1 | |
| 20260905195847 | 20 | 25 | 8.0 | 19.3 | 0.00 | 0.00 | 0.00 | 1016.3 | |
| 20260905195207 | 20 | 0 | 11.3 | 19.3 | 0.00 | 0.00 | 0.00 | 1016.2 | |
| 20260905194527 | 20 | 6 | 11.3 | 19.3 | 0.00 | 0.00 | 0.00 | 1016.2 | |
| 20260905193847 | 20 | 5 | 11.3 | 22.5 | 0.00 | 0.00 | 0.00 | 1016.1 | |
| 20260905193207 | 21 | 2 | 9.7 | 22.5 | 0.00 | 0.00 | 0.00 | 1016.2 | |
| 20260905192741 | 21 | 25 | 9.7 | 17.7 | 0.00 | 0.00 | 0.00 | 1016.2 | |
| 20260905191847 | 21 | 40 | 9.7 | 17.7 | 0.00 | 0.00 | 0.00 | 1016.2 | |
| 20260905191417 | 20 | 35 | 9.7 | 17.7 | 0.00 | 0.00 | 0.00 | 1016.3 | |
| 20260905190527 | 21 | 24 | 11.3 | 17.7 | 0.00 | 0.00 | 0.00 | 1016.2 | |
| 20260905185847 | 21 | 24 | 8.0 | 16.1 | 0.00 | 0.00 | 0.00 | 1016.3 | |
| 20260905185206 | 20 | 31 | 8.0 | 19.3 | 0.00 | 0.00 | 0.00 | 1016.3 | |
| 20260905184527 | 20 | 37 | 11.3 | 19.3 | 0.00 | 0.00 | 0.00 | 1016.3 | |
| 20260905183847 | 21 | 28 | 9.7 | 19.3 | 0.00 | 0.00 | 0.00 | 1016.4 | |
| 20260905183207 | 21 | 24 | 12.9 | 20.9 | 0.00 | 0.00 | 0.00 | 1016.3 | |
| 20260905182527 | 21 | 32 | 11.3 | 22.5 | 0.00 | 0.00 | 0.00 | 1016.4 | |
| 20260905181847 | 21 | 20 | 14.5 | 22.5 | 0.00 | 0.00 | 0.00 | 1016.4 | |
| 20260905181418 | 21 | 15 | 11.3 | 22.5 | 0.00 | 0.00 | 0.00 | 1016.5 | |
| 20260905180527 | 20 | 30 | 14.5 | 22.5 | 0.00 | 0.00 | 0.00 | 1016.4 | |
| 20260905175847 | 21 | 17 | 11.3 | 22.5 | 0.00 | 0.00 | 0.00 | 1016.4 | |
| 20260905175207 | 21 | 28 | 9.7 | 22.5 | 0.00 | 0.00 | 0.00 | 1016.2 | |
| 20260905174527 | 20 | 27 | 17.7 | 22.5 | 0.00 | 0.00 | 0.00 | 1016.2 | |
| 20260905173847 | 21 | 22 | 8.0 | 20.9 | 0.00 | 0.00 | 0.00 | 1016.3 | |
| 20260905173207 | 21 | 18 | 11.3 | 20.9 | 0.00 | 0.00 | 0.00 | 1016.2 | |
| 20260905172527 | 20 | 23 | 12.9 | 19.3 | 0.00 | 0.00 | 0.00 | 1016.2 | |
| 20260905172058 | 20 | 24 | 11.3 | 19.3 | 0.00 | 0.00 | 0.00 | 1016.3 | |
| 20260905171207 | 20 | 17 | 14.5 | 19.3 | 0.00 | 0.00 | 0.00 | 1016.2 | |
| 20260905170739 | 20 | 18 | 8.0 | 17.7 | 0.00 | 0.00 | 0.00 | 1016.2 | |
| 20260905165847 | 20 | 15 | 9.7 | 16.1 | 0.00 | 0.00 | 0.00 | 1016.2 | |
| 20260905165207 | 20 | 23 | 11.3 | 16.1 | 0.00 | 0.00 | 0.00 | 1016.1 | |
| 20260905164527 | 21 | 23 | 9.7 | 14.5 | 0.00 | 0.00 | 0.00 | 1016.2 | |
| 20260905164057 | 21 | 17 | 8.0 | 12.9 | 0.00 | 0.00 | 0.00 | 1016.3 |